TimeEST,TemperatureF,Dew PointF,Humidity,Sea Level PressureIn,VisibilityMPH,Wind Direction,Wind SpeedMPH,Gust SpeedMPH,PrecipitationIn,Events,Conditions,WindDirDegrees,DateUTC
12:15 AM,35.4,32.5,89,30.15,10.0,Calm,Calm,-,N/A,,Scattered Clouds,0,2012-11-21 05:15:00
12:35 AM,35.2,32.4,89,30.15,10.0,Calm,Calm,-,N/A,,Mostly Cloudy,0,2012-11-21 05:35:00
12:55 AM,34.5,31.8,90,30.14,10.0,Calm,Calm,-,N/A,,Scattered Clouds,0,2012-11-21 05:55:00
1:15 AM,37.8,33.3,84,30.14,10.0,West,5.8,-,N/A,,Clear,280,2012-11-21 06:15:00
1:35 AM,33.8,31.1,90,30.14,10.0,SSW,3.5,-,N/A,,Clear,200,2012-11-21 06:35:00
1:55 AM,34.5,32.0,90,30.14,10.0,Calm,Calm,-,N/A,,Scattered Clouds,0,2012-11-21 06:55:00
2:15 AM,34.7,32.0,90,30.14,10.0,Calm,Calm,-,N/A,,Clear,0,2012-11-21 07:15:00
2:35 AM,35.6,32.0,87,30.14,10.0,Calm,Calm,-,N/A,,Clear,0,2012-11-21 07:35:00
2:55 AM,35.2,32.0,88,30.14,10.0,West,3.5,-,N/A,,Clear,260,2012-11-21 07:55:00
3:15 AM,36.7,32.4,84,30.14,10.0,SW,3.5,-,N/A,,Clear,230,2012-11-21 08:15:00
3:35 AM,36.5,32.0,84,30.14,10.0,Calm,Calm,-,N/A,,Clear,0,2012-11-21 08:35:00
3:55 AM,34.3,31.8,90,30.14,10.0,Calm,Calm,-,N/A,,Clear,0,2012-11-21 08:55:00
4:15 AM,35.1,32.0,89,30.14,10.0,Calm,Calm,-,N/A,,Clear,0,2012-11-21 09:15:00
4:35 AM,35.4,32.0,87,30.14,10.0,Calm,Calm,-,N/A,,Clear,0,2012-11-21 09:35:00
4:55 AM,34.2,31.6,90,30.15,10.0,Calm,Calm,-,N/A,,Clear,0,2012-11-21 09:55:00
5:15 AM,32.9,30.7,92,30.16,10.0,Calm,Calm,-,N/A,,Scattered Clouds,0,2012-11-21 10:15:00
5:35 AM,32.4,30.2,92,30.16,10.0,Calm,Calm,-,N/A,,Scattered Clouds,0,2012-11-21 10:35:00
5:55 AM,32.7,30.7,92,30.16,10.0,Calm,Calm,-,N/A,,Clear,0,2012-11-21 10:55:00
6:15 AM,33.1,30.6,90,30.17,10.0,Calm,Calm,-,N/A,,Clear,0,2012-11-21 11:15:00
6:35 AM,32.9,31.1,93,30.17,10.0,Calm,Calm,-,N/A,,Clear,0,2012-11-21 11:35:00
6:55 AM,32.5,31.1,94,30.18,10.0,Calm,Calm,-,N/A,,Clear,0,2012-11-21 11:55:00
7:15 AM,33.4,30.6,89,30.19,10.0,Calm,Calm,-,N/A,,Clear,0,2012-11-21 12:15:00
7:35 AM,32.0,30.6,94,30.20,10.0,Calm,Calm,-,N/A,,Clear,0,2012-11-21 12:35:00
7:55 AM,33.3,30.6,90,30.20,10.0,Calm,Calm,-,N/A,,Clear,0,2012-11-21 12:55:00
8:15 AM,35.2,31.8,87,30.20,10.0,Calm,Calm,-,N/A,,Clear,0,2012-11-21 13:15:00
8:35 AM,37.2,33.4,86,30.20,10.0,Calm,Calm,-,N/A,,Clear,0,2012-11-21 13:35:00
8:55 AM,40.3,34.5,80,30.21,10.0,Calm,Calm,-,N/A,,Clear,0,2012-11-21 13:55:00
9:15 AM,44.6,37.9,77,30.21,10.0,Calm,Calm,-,N/A,,Clear,0,2012-11-21 14:15:00
9:35 AM,49.1,37.8,65,30.21,10.0,Calm,Calm,-,N/A,,Clear,0,2012-11-21 14:35:00
9:55 AM,53.2,38.1,57,30.21,10.0,Calm,Calm,-,N/A,,Clear,0,2012-11-21 14:55:00
10:15 AM,55.8,31.6,40,30.21,10.0,Calm,Calm,-,N/A,,Clear,0,2012-11-21 15:15:00
10:35 AM,57.4,29.5,35,30.21,10.0,Calm,Calm,-,N/A,,Clear,0,2012-11-21 15:35:00
10:55 AM,59.2,29.7,33,30.21,10.0,Calm,Calm,-,N/A,,Clear,0,2012-11-21 15:55:00
11:15 AM,58.5,27.9,31,30.21,10.0,ESE,3.5,-,N/A,,Clear,120,2012-11-21 16:15:00
11:35 AM,60.8,29.3,30,30.20,10.0,Calm,Calm,-,N/A,,Clear,0,2012-11-21 16:35:00
11:55 AM,60.8,24.8,25,30.19,10.0,NNE,6.9,-,N/A,,Clear,20,2012-11-21 16:55:00
12:15 PM,61.2,24.4,25,30.18,10.0,NE,8.1,-,N/A,,Clear,40,2012-11-21 17:15:00
12:35 PM,62.2,25.2,24,30.17,10.0,NE,4.6,-,N/A,,Clear,50,2012-11-21 17:35:00
12:55 PM,61.9,25.9,25,30.17,10.0,North,5.8,-,N/A,,Scattered Clouds,350,2012-11-21 17:55:00
1:15 PM,62.6,25.9,25,30.17,10.0,NW,9.2,16.1,N/A,,Scattered Clouds,320,2012-11-21 18:15:00
1:35 PM,61.9,26.6,26,30.17,10.0,North,9.2,16.1,N/A,,Scattered Clouds,350,2012-11-21 18:35:00
1:55 PM,60.4,27.7,29,30.17,10.0,NW,5.8,-,N/A,,Clear,320,2012-11-21 18:55:00
2:15 PM,62.1,28.8,28,30.16,10.0,North,9.2,-,N/A,,Clear,360,2012-11-21 19:15:00
2:35 PM,62.1,28.0,28,30.16,10.0,NNE,6.9,-,N/A,,Clear,30,2012-11-21 19:35:00
2:55 PM,62.1,27.7,27,30.16,10.0,NE,3.5,-,N/A,,Clear,50,2012-11-21 19:55:00
3:15 PM,61.9,27.5,27,30.16,10.0,North,9.2,16.1,N/A,,Clear,360,2012-11-21 20:15:00
3:35 PM,61.2,28.6,29,30.16,10.0,North,6.9,-,N/A,,Clear,360,2012-11-21 20:35:00
3:55 PM,61.0,29.1,30,30.17,10.0,NW,6.9,-,N/A,,Clear,320,2012-11-21 20:55:00
4:15 PM,60.6,28.2,29,30.17,10.0,NNW,4.6,-,N/A,,Clear,340,2012-11-21 21:15:00
4:35 PM,59.5,28.4,31,30.17,10.0,NW,4.6,-,N/A,,Clear,320,2012-11-21 21:35:00
4:55 PM,57.9,28.4,32,30.18,10.0,WNW,6.9,-,N/A,,Clear,300,2012-11-21 21:55:00
5:15 PM,55.9,28.4,35,30.18,10.0,Calm,Calm,-,N/A,,Clear,0,2012-11-21 22:15:00
5:35 PM,54.9,28.6,37,30.19,10.0,NW,4.6,-,N/A,,Clear,310,2012-11-21 22:35:00
5:55 PM,53.4,29.1,39,30.20,10.0,NW,5.8,-,N/A,,Clear,310,2012-11-21 22:55:00
6:15 PM,51.8,29.7,43,30.20,10.0,NW,3.5,-,N/A,,Clear,310,2012-11-21 23:15:00
6:35 PM,50.0,30.6,47,30.21,10.0,Calm,Calm,-,N/A,,Clear,0,2012-11-21 23:35:00
6:55 PM,49.1,30.7,49,30.21,10.0,Calm,Calm,-,N/A,,Clear,0,2012-11-21 23:55:00
7:15 PM,47.7,31.1,53,30.22,10.0,Calm,Calm,-,N/A,,Clear,0,2012-11-22 00:15:00
7:35 PM,47.1,31.1,54,30.22,10.0,Calm,Calm,-,N/A,,Clear,0,2012-11-22 00:35:00
7:55 PM,44.2,31.8,62,30.23,10.0,Calm,Calm,-,N/A,,Clear,0,2012-11-22 00:55:00
8:15 PM,43.3,32.0,64,30.23,10.0,Calm,Calm,-,N/A,,Clear,0,2012-11-22 01:15:00
8:35 PM,43.0,32.0,65,30.23,10.0,Calm,Calm,-,N/A,,Clear,0,2012-11-22 01:35:00
8:55 PM,43.0,31.6,64,30.23,10.0,Calm,Calm,-,N/A,,Clear,0,2012-11-22 01:55:00
9:15 PM,41.7,31.6,67,30.23,10.0,Calm,Calm,-,N/A,,Clear,0,2012-11-22 02:15:00
9:35 PM,41.4,31.8,69,30.24,10.0,Calm,Calm,-,N/A,,Clear,0,2012-11-22 02:35:00
9:55 PM,40.5,31.1,69,30.24,10.0,WNW,3.5,-,N/A,,Clear,290,2012-11-22 02:55:00
10:15 PM,40.5,31.5,70,30.24,10.0,Calm,Calm,-,N/A,,Clear,0,2012-11-22 03:15:00
10:35 PM,38.1,31.3,76,30.23,10.0,Calm,Calm,-,N/A,,Clear,0,2012-11-22 03:35:00
10:55 PM,36.9,30.7,79,30.23,10.0,Calm,Calm,-,N/A,,Clear,0,2012-11-22 03:55:00
11:15 PM,37.4,31.5,79,30.23,10.0,Calm,Calm,-,N/A,,Clear,0,2012-11-22 04:15:00
11:35 PM,37.2,30.9,78,30.23,10.0,Calm,Calm,-,N/A,,Clear,0,2012-11-22 04:35:00
11:55 PM,35.1,29.8,81,30.23,10.0,SSE,3.5,-,N/A,,Clear,160,2012-11-22 04:55:00